| time (UTC) | temp C | wind direction | speed KPH | gust KPH | rain 1hr cm | rain 24hr cm | rain mn cm | humidity % | barometer mb |
| 20260507031159 | -17 | 65 | 0.0 | 0.0 | 0.18 | 0.10 | 0.10 | 1004.6 | |
| 20260507030656 | -17 | 70 | 0.0 | 0.0 | 0.18 | 0.10 | 0.10 | 1004.5 | |
| 20260507030154 | -17 | 71 | 0.0 | 0.0 | 0.00 | 0.08 | 0.08 | 1004.5 | |
| 20260507025651 | -17 | 77 | 0.0 | 0.0 | 0.00 | 0.08 | 0.08 | 1004.5 | |
| 20260507025148 | -17 | 68 | 0.0 | 0.0 | 0.00 | 0.08 | 0.08 | 1004.3 | |
| 20260507024646 | -17 | 156 | 0.0 | 0.0 | 0.00 | 0.08 | 0.08 | 1004.5 | |
| 20260507024143 | -17 | 142 | 3.2 | 3.2 | 0.00 | 0.08 | 0.08 | 1004.2 | |
| 20260507023638 | -17 | 61 | 0.0 | 0.0 | 0.00 | 0.08 | 0.08 | 1004.3 | |
| 20260507023136 | -17 | 80 | 0.0 | 0.0 | 0.00 | 0.08 | 0.08 | 1004.5 | |
| 20260507022633 | -17 | 102 | 0.0 | 0.0 | 0.00 | 0.08 | 0.08 | 1004.6 | |
| 20260507022128 | -17 | 71 | 0.0 | 0.0 | 0.00 | 0.08 | 0.08 | 1004.5 | |
| 20260507021625 | -17 | 47 | 0.0 | 0.0 | 0.00 | 0.08 | 0.08 | 1004.5 | |
| 20260507021120 | -17 | 144 | 1.6 | 3.2 | 0.00 | 0.08 | 0.08 | 1004.4 | |
| 20260507020619 | -17 | 88 | 0.0 | 0.0 | 0.00 | 0.08 | 0.08 | 1004.4 | |
| 20260507020115 | -17 | 117 | 0.0 | 0.0 | 0.00 | 0.08 | 0.08 | 1004.5 | |
| 20260507015614 | -17 | 82 | 0.0 | 0.0 | 0.00 | 0.08 | 0.08 | 1004.5 | |
| 20260507015111 | -17 | 58 | 1.6 | 3.2 | 0.00 | 0.08 | 0.08 | 1004.5 | |
| 20260507014607 | -17 | 85 | 0.0 | 0.0 | 0.00 | 0.08 | 0.08 | 1004.4 | |
| 20260507014103 | -17 | 77 | 0.0 | 0.0 | 0.00 | 0.08 | 0.08 | 1004.4 | |
| 20260507013600 | -17 | 111 | 0.0 | 1.6 | 0.00 | 0.08 | 0.08 | 1004.3 | |
| 20260507013057 | -17 | 153 | 1.6 | 1.6 | 0.00 | 0.08 | 0.08 | 1004.6 | |
| 20260507012554 | -17 | 75 | 0.0 | 0.0 | 0.00 | 0.08 | 0.08 | 1004.5 | |
| 20260507012050 | -17 | 202 | 1.6 | 3.2 | 0.00 | 0.08 | 0.08 | 1004.6 | |
| 20260507011548 | -17 | 148 | 1.6 | 3.2 | 0.00 | 0.08 | 0.08 | 1004.7 | |
| 20260507011044 | -17 | 60 | 0.0 | 0.0 | 0.00 | 0.08 | 0.08 | 1004.7 | |
| 20260507010539 | -17 | 113 | 1.6 | 1.6 | 0.00 | 0.08 | 0.08 | 1004.8 | |
| 20260507010035 | -17 | 227 | 6.4 | 9.7 | 0.00 | 0.08 | 0.08 | 1004.7 | |
| 20260507005533 | -17 | 104 | 0.0 | 0.0 | 0.00 | 0.08 | 0.08 | 1004.8 | |
| 20260507005029 | -17 | 249 | 1.6 | 3.2 | 0.00 | 0.08 | 0.08 | 1004.6 | |
| 20260507004526 | -17 | 86 | 0.0 | 0.0 | 0.00 | 0.08 | 0.08 | 1004.5 | |
| 20260507004023 | -17 | 125 | 4.8 | 4.8 | 0.00 | 0.08 | 0.08 | 1004.9 | |
| 20260507003519 | -17 | 90 | 0.0 | 0.0 | 0.00 | 0.08 | 0.08 | 1004.7 | |
| 20260507003014 | -17 | 154 | 3.2 | 3.2 | 0.00 | 0.08 | 0.08 | 1004.7 | |
| 20260507002511 | -17 | 134 | 1.6 | 3.2 | 0.00 | 0.08 | 0.08 | 1004.8 | |
| 20260507002007 | -17 | 109 | 0.0 | 1.6 | 0.00 | 0.08 | 0.08 | 1004.6 | |
| 20260507001503 | -17 | 127 | 1.6 | 3.2 | 0.00 | 0.08 | 0.08 | 1004.7 | |
| 20260507001001 | -17 | 31 | 3.2 | 3.2 | 0.00 | 0.08 | 0.08 | 1004.6 | |
| 20260507000457 | -17 | 109 | 0.0 | 0.0 | 0.00 | 0.08 | 0.08 | 1004.4 | |
| 20260506235952 | -17 | 227 | 3.2 | 4.8 | 0.00 | 0.08 | 0.08 | 1004.3 | |
| 20260506235450 | -17 | 115 | 1.6 | 1.6 | 0.00 | 0.08 | 0.08 | 1004.4 | |
| 20260506234946 | -17 | 117 | 0.0 | 0.0 | 0.00 | 0.08 | 0.08 | 1004.4 | |
| 20260506234443 | -17 | 169 | 1.6 | 3.2 | 0.00 | 0.08 | 0.08 | 1004.1 | |
| 20260506233941 | -17 | 69 | 0.0 | 0.0 | 0.00 | 0.08 | 0.08 | 1004.3 | |
| 20260506233437 | -17 | 74 | 0.0 | 0.0 | 0.00 | 0.08 | 0.08 | 1004.4 | |
| 20260506232934 | -17 | 79 | 0.0 | 0.0 | 0.13 | 0.08 | 0.08 | 1004.4 | |
| 20260506232430 | -17 | 242 | 0.0 | 0.0 | 0.13 | 0.08 | 0.08 | 1004.5 | |
| 20260506231926 | -17 | 110 | 0.0 | 0.0 | 0.00 | 0.05 | 0.05 | 1004.1 | |
| 20260506231423 | -17 | 28 | 0.0 | 0.0 | 0.00 | 0.05 | 0.05 | 1004.4 | |
| 20260506230920 | -17 | 149 | 1.6 | 1.6 | 0.18 | 0.05 | 0.05 | 1004.2 | |
| 20260506230417 | -17 | 49 | 0.0 | 0.0 | 0.18 | 0.05 | 0.05 | 1004.4 | |
| 20260506225914 | -17 | 87 | 1.6 | 3.2 | 0.00 | 0.03 | 0.03 | 1004.3 | |
| 20260506225411 | -17 | 23 | 0.0 | 0.0 | 0.00 | 0.03 | 0.03 | 1004.3 | |
| 20260506224908 | -17 | 241 | 0.0 | 1.6 | 0.00 | 0.03 | 0.03 | 1004.3 | |
| 20260506224405 | -17 | 76 | 0.0 | 0.0 | 0.00 | 0.03 | 0.03 | 1004.4 | |
| 20260506223901 | -17 | 17 | 0.0 | 1.6 | 0.00 | 0.03 | 0.03 | 1004.6 | |
| 20260506223356 | -17 | 40 | 0.0 | 0.0 | 0.13 | 0.03 | 0.03 | 1004.5 | |
| 20260506222854 | -17 | 127 | 0.0 | 1.6 | 0.13 | 0.03 | 0.03 | 1004.7 | |
| 20260506222350 | -17 | 233 | 4.8 | 8.0 | 0.00 | 0.00 | 0.00 | 1004.4 | |
| 20260506221848 | -17 | 176 | 0.0 | 0.0 | 0.00 | 0.00 | 0.00 | 1004.6 | |
| 20260506221345 | -17 | 184 | 0.0 | 0.0 | 0.00 | 0.00 | 0.00 | 1004.5 | |
| 20260506220842 | -17 | 115 | 0.0 | 0.0 | 0.00 | 0.00 | 0.00 | 1004.8 | |
| 20260506220338 | -17 | 69 | 0.0 | 0.0 | 0.00 | 0.00 | 0.00 | 1004.8 | |
| 20260506215835 | -17 | 173 | 4.8 | 9.7 | 0.00 | 0.00 | 0.00 | 1004.9 | |
| 20260506215330 | -17 | 173 | 4.8 | 9.7 | 0.00 | 0.00 | 0.00 | 1004.9 | |
| 20260506214826 | -17 | 104 | 0.0 | 0.0 | 0.00 | 0.18 | 0.18 | 1004.7 | |
| 20260506214323 | -17 | 81 | 1.6 | 1.6 | 0.18 | 0.18 | 0.18 | 1005.0 | |
| 20260506213822 | -17 | 107 | 0.0 | 0.0 | 0.18 | 0.18 | 0.18 | 1004.9 | |
| 20260506213319 | -17 | 178 | 3.2 | 3.2 | 0.00 | 0.15 | 0.15 | 1004.7 | |
| 20260506212816 | -17 | 13 | 3.2 | 4.8 | 0.00 | 0.15 | 0.15 | 1005.1 | |
| 20260506212311 | -17 | 30 | 4.8 | 4.8 | 0.00 | 0.15 | 0.15 | 1004.8 | |
| 20260506211807 | -17 | 250 | 3.2 | 4.8 | 0.00 | 0.15 | 0.15 | 1004.9 | |
| 20260506211303 | -17 | 71 | 0.0 | 0.0 | 0.00 | 0.15 | 0.15 | 1004.9 | |
| 20260506210801 | -17 | 65 | 0.0 | 0.0 | 0.00 | 0.15 | 0.15 | 1005.1 | |
| 20260506210257 | -17 | 63 | 1.6 | 3.2 | 0.00 | 0.15 | 0.15 | 1005.1 | |
| 20260506205754 | -17 | 49 | 0.0 | 0.0 | 0.00 | 0.15 | 0.15 | 1005.1 | |
| 20260506205249 | -17 | 136 | 1.6 | 1.6 | 0.00 | 0.15 | 0.15 | 1005.3 | |
| 20260506204746 | -17 | 135 | 3.2 | 4.8 | 0.00 | 0.15 | 0.15 | 1005.4 | |
| 20260506204245 | -17 | 133 | 1.6 | 1.6 | 0.00 | 0.15 | 0.15 | 1005.1 | |
| 20260506203742 | -17 | 79 | 0.0 | 0.0 | 0.00 | 0.15 | 0.15 | 1005.3 | |
| 20260506203239 | -17 | 55 | 0.0 | 0.0 | 0.00 | 0.15 | 0.15 | 1005.3 | |
| 20260506202736 | -17 | 13 | 3.2 | 3.2 | 0.00 | 0.15 | 0.15 | 1005.3 | |
| 20260506202233 | -17 | 150 | 0.0 | 1.6 | 0.13 | 0.15 | 0.15 | 1005.4 | |
| 20260506201730 | -17 | 61 | 0.0 | 0.0 | 0.13 | 0.15 | 0.15 | 1005.2 | |
| 20260506201226 | -17 | 186 | 4.8 | 8.0 | 0.00 | 0.13 | 0.13 | 1005.2 | |
| 20260506200723 | -17 | 357 | 1.6 | 1.6 | 0.00 | 0.13 | 0.13 | 1005.2 | |
| 20260506200220 | -17 | 58 | 1.6 | 1.6 | 0.00 | 0.13 | 0.13 | 1005.3 | |
| 20260506195716 | -17 | 84 | 0.0 | 0.0 | 0.00 | 0.13 | 0.13 | 1005.3 | |
| 20260506195212 | -17 | 73 | 0.0 | 0.0 | 0.00 | 0.13 | 0.13 | 1005.2 | |
| 20260506194705 | -17 | 66 | 1.6 | 1.6 | 0.00 | 0.13 | 0.13 | 1005.1 | |
| 20260506194201 | -17 | 178 | 1.6 | 1.6 | 0.18 | 0.13 | 0.13 | 1005.1 | |
| 20260506193658 | -17 | 204 | 1.6 | 3.2 | 0.30 | 0.13 | 0.13 | 1005.1 | |
| 20260506193155 | -17 | 145 | 3.2 | 3.2 | 0.13 | 0.10 | 0.10 | 1005.2 | |
| 20260506192652 | -17 | 82 | 1.6 | 3.2 | 0.18 | 0.08 | 0.08 | 1005.5 | |
| 20260506192148 | -17 | 48 | 0.0 | 1.6 | 0.18 | 0.08 | 0.08 | 1005.6 | |
| 20260506191646 | -17 | 154 | 1.6 | 1.6 | 0.13 | 0.05 | 0.05 | 1005.5 | |
| 20260506191141 | -17 | 95 | 1.6 | 1.6 | 0.13 | 0.05 | 0.05 | 1005.4 | |
| 20260506190639 | -17 | 105 | 1.6 | 1.6 | 0.18 | 0.03 | 0.03 | 1005.3 | |
| 20260506190135 | -17 | 52 | 0.0 | 1.6 | 0.18 | 0.03 | 0.03 | 1005.4 | |
| 20260506185632 | -17 | 119 | 1.6 | 1.6 | 0.00 | 0.00 | 0.00 | 1005.4 | |
| 20260506185128 | -17 | 83 | 1.6 | 3.2 | 0.00 | 0.00 | 0.00 | 1005.3 | |
| 20260506184626 | -17 | 82 | 3.2 | 4.8 | 0.00 | 0.00 | 0.00 | 1005.6 | |
| 20260506184123 | -17 | 85 | 0.0 | 0.0 | 0.00 | 0.00 | 0.00 | 1005.7 | |
| 20260506183620 | -17 | 54 | 0.0 | 0.0 | 0.00 | 0.00 | 0.00 | 1005.7 | |
| 20260506183116 | -17 | 171 | 3.2 | 4.8 | 0.00 | 0.00 | 0.00 | 1005.6 | |
| 20260506182614 | -17 | 134 | 3.2 | 3.2 | 0.00 | 0.00 | 0.00 | 1005.8 | |
| 20260506182110 | -17 | 17 | 3.2 | 3.2 | 0.00 | 0.00 | 0.00 | 1005.8 | |
| 20260506181608 | -17 | 134 | 1.6 | 1.6 | 0.00 | 0.00 | 0.00 | 1005.5 | |
| 20260506181105 | -17 | 208 | 3.2 | 8.0 | 0.00 | 0.00 | 0.00 | 1005.6 | |
| 20260506180602 | -17 | 147 | 4.8 | 8.0 | 0.00 | 0.00 | 0.00 | 1005.9 | |
| 20260506180059 | -17 | 75 | 1.6 | 1.6 | 0.00 | 0.00 | 0.00 | 1005.6 | |
| 20260506175554 | -17 | 220 | 6.4 | 9.7 | 0.00 | 0.00 | 0.00 | 1005.6 | |
| 20260506175051 | -17 | 194 | 0.0 | 1.6 | 0.00 | 0.00 | 0.00 | 1005.9 | |
| 20260506174550 | -17 | 97 | 1.6 | 1.6 | 0.00 | 0.00 | 0.00 | 1005.6 | |
| 20260506174046 | -17 | 205 | 4.8 | 8.0 | 0.00 | 0.00 | 0.00 | 1005.8 | |
| 20260506173544 | -17 | 200 | 8.0 | 12.9 | 0.00 | 0.00 | 0.00 | 1005.8 | |
| 20260506173040 | -17 | 36 | 1.6 | 3.2 | 0.00 | 0.00 | 0.00 | 1005.9 | |
| 20260506172538 | -17 | 68 | 3.2 | 4.8 | 0.00 | 0.00 | 0.00 | 1005.6 | |
| 20260506172034 | -17 | 71 | 3.2 | 3.2 | 0.00 | 0.00 | 0.00 | 1005.8 | |
| 20260506171531 | -17 | 349 | 6.4 | 9.7 | 0.00 | 0.00 | 0.00 | 1006.0 | |
| 20260506171029 | -17 | 145 | 3.2 | 3.2 | 0.00 | 0.00 | 0.00 | 1005.9 | |
| 20260506170526 | -17 | 12 | 4.8 | 4.8 | 0.00 | 0.00 | 0.00 | 1005.8 | |
| 20260506170023 | -17 | 180 | 3.2 | 4.8 | 0.00 | 0.00 | 0.00 | 1005.8 | |
| 20260506165522 | -17 | 193 | 3.2 | 3.2 | 0.00 | 0.00 | 0.00 | 1005.8 | |
| 20260506165018 | -17 | 64 | 0.0 | 1.6 | 0.00 | 0.00 | 0.00 | 1005.9 | |
| 20260506164514 | -17 | 106 | 3.2 | 3.2 | 0.00 | 0.00 | 0.00 | 1006.0 | |
| 20260506164012 | -17 | 90 | 9.7 | 14.5 | 0.00 | 0.00 | 0.00 | 1006.3 | |
| 20260506163508 | -17 | 192 | 1.6 | 3.2 | 0.00 | 0.00 | 0.00 | 1006.2 | |
| 20260506163004 | -17 | 140 | 1.6 | 3.2 | 0.00 | 0.00 | 0.00 | 1006.2 | |
| 20260506162500 | -17 | 31 | 3.2 | 4.8 | 0.00 | 0.00 | 0.00 | 1006.2 | |
| 20260506161957 | -17 | 118 | 4.8 | 9.7 | 0.00 | 0.00 | 0.00 | 1006.3 | |
| 20260506161455 | -17 | 165 | 3.2 | 3.2 | 0.00 | 0.00 | 0.00 | 1006.5 | |
| 20260506160952 | -17 | 180 | 6.4 | 11.3 | 0.00 | 0.00 | 0.00 | 1006.5 | |
| 20260506160449 | -17 | 175 | 3.2 | 4.8 | 0.00 | 0.00 | 0.00 | 1006.8 | |
| 20260506155946 | -17 | 223 | 3.2 | 3.2 | 0.00 | 0.00 | 0.00 | 1006.8 | |
| 20260506155444 | -17 | 182 | 6.4 | 11.3 | 0.00 | 0.00 | 0.00 | 1007.0 | |
| 20260506153616 | -17 | 344 | 6.4 | 11.3 | 0.00 | 0.00 | 0.00 | 1007.3 | |
| 20260506153114 | -17 | 172 | 1.6 | 1.6 | 0.00 | 0.00 | 0.00 | 1007.0 | |
| 20260506152611 | -17 | 202 | 3.2 | 4.8 | 0.00 | 0.00 | 0.00 | 1007.3 | |
| 20260506152109 | -17 | 60 | 3.2 | 3.2 | 0.00 | 0.00 | 0.00 | 1007.3 | |
| 20260506151607 | -17 | 348 | 3.2 | 4.8 | 0.00 | 0.00 | 0.00 | 1007.2 | |
| 20260506151103 | -17 | 149 | 1.6 | 3.2 | 0.00 | 0.00 | 0.00 | 1007.3 | |
| 20260506150600 | -17 | 246 | 9.7 | 12.9 | 0.00 | 0.00 | 0.00 | 1007.5 | |
| 20260506150057 | -17 | 212 | 4.8 | 8.0 | 0.00 | 0.00 | 0.00 | 1007.4 | |
| 20260506145554 | -17 | 37 | 3.2 | 3.2 | 0.00 | 0.00 | 0.00 | 1007.1 | |
| 20260506145051 | -17 | 153 | 6.4 | 9.7 | 0.00 | 0.00 | 0.00 | 1007.4 | |
| 20260506144548 | -17 | 36 | 3.2 | 4.8 | 0.00 | 0.00 | 0.00 | 1007.7 | |
| 20260506144045 | -17 | 62 | 8.0 | 11.3 | 0.00 | 0.00 | 0.00 | 1007.4 | |
| 20260506143543 | -17 | 337 | 8.0 | 11.3 | 0.00 | 0.00 | 0.00 | 1007.2 | |
| 20260506143041 | -17 | 124 | 4.8 | 9.7 | 0.00 | 0.00 | 0.00 | 1007.4 | |
| 20260506142538 | -17 | 177 | 4.8 | 4.8 | 0.00 | 0.00 | 0.00 | 1007.4 | |
| 20260506142037 | -17 | 217 | 3.2 | 3.2 | 0.00 | 0.00 | 0.00 | 1007.5 | |
| 20260506141534 | -17 | 130 | 6.4 | 12.9 | 0.00 | 0.00 | 0.00 | 1007.4 | |
| 20260506141032 | -17 | 71 | 0.0 | 0.0 | 0.00 | 0.00 | 0.00 | 1007.2 | |
| 20260506140529 | -17 | 70 | 3.2 | 4.8 | 0.00 | 0.00 | 0.00 | 1007.2 | |
| 20260506140026 | -17 | 70 | 1.6 | 1.6 | 0.00 | 0.00 | 0.00 | 1007.4 | |
| 20260506135523 | -17 | 87 | 1.6 | 1.6 | 0.00 | 0.00 | 0.00 | 1007.6 | |
| 20260506135019 | -17 | 97 | 3.2 | 3.2 | 0.00 | 0.00 | 0.00 | 1007.7 | |
| 20260506134515 | -17 | 128 | 1.6 | 1.6 | 0.00 | 0.00 | 0.00 | 1007.4 | |
| 20260506134012 | -17 | 203 | 3.2 | 8.0 | 0.00 | 0.00 | 0.00 | 1007.4 | |
| 20260506133509 | -17 | 193 | 8.0 | 8.0 | 0.00 | 0.00 | 0.00 | 1007.8 | |
| 20260506133006 | -17 | 62 | 1.6 | 3.2 | 0.00 | 0.00 | 0.00 | 1007.9 | |
| 20260506132503 | -17 | 76 | 1.6 | 1.6 | 0.00 | 0.00 | 0.00 | 1008.1 | |
| 20260506132000 | -17 | 234 | 6.4 | 9.7 | 0.00 | 0.00 | 0.00 | 1008.1 | |
| 20260506131457 | -17 | 106 | 0.0 | 1.6 | 0.00 | 0.00 | 0.00 | 1008.2 | |
| 20260506130954 | -17 | 184 | 3.2 | 3.2 | 0.00 | 0.00 | 0.00 | 1008.2 | |
| 20260506130450 | -17 | 137 | 0.0 | 1.6 | 0.00 | 0.00 | 0.00 | 1008.0 | |
| 20260506125948 | -17 | 56 | 0.0 | 1.6 | 0.00 | 0.00 | 0.00 | 1008.1 | |
| 20260506125446 | -17 | 353 | 3.2 | 4.8 | 0.00 | 0.00 | 0.00 | 1008.0 | |
| 20260506124944 | -17 | 180 | 3.2 | 3.2 | 0.00 | 0.00 | 0.00 | 1007.9 | |
| 20260506124441 | -17 | 172 | 4.8 | 8.0 | 0.00 | 0.00 | 0.00 | 1007.8 | |
| 20260506123939 | -17 | 114 | 0.0 | 0.0 | 0.00 | 0.00 | 0.00 | 1008.1 | |
| 20260506123437 | -17 | 340 | 3.2 | 3.2 | 0.00 | 0.00 | 0.00 | 1008.1 | |
| 20260506122934 | -17 | 306 | 1.6 | 1.6 | 0.00 | 0.00 | 0.00 | 1008.2 | |
| 20260506122431 | -17 | 105 | 3.2 | 3.2 | 0.00 | 0.00 | 0.00 | 1008.2 | |
| 20260506121929 | -17 | 42 | 3.2 | 3.2 | 0.00 | 0.00 | 0.00 | 1008.3 | |
| 20260506121426 | -17 | 221 | 3.2 | 4.8 | 0.00 | 0.00 | 0.00 | 1008.2 | |
| 20260506120923 | -17 | 18 | 4.8 | 8.0 | 0.00 | 0.00 | 0.00 | 1008.4 | |
| 20260506120420 | -17 | 93 | 3.2 | 3.2 | 0.00 | 0.00 | 0.00 | 1008.2 | |
| 20260506115917 | -17 | 51 | 1.6 | 1.6 | 0.00 | 0.00 | 0.00 | 1008.1 | |
| 20260506115415 | -17 | 78 | 1.6 | 3.2 | 0.00 | 0.00 | 0.00 | 1008.4 | |
| 20260506114914 | -17 | 128 | 1.6 | 1.6 | 0.00 | 0.00 | 0.00 | 1008.4 | |
| 20260506114411 | -17 | 48 | 3.2 | 4.8 | 0.00 | 0.00 | 0.00 | 1008.5 | |
| 20260506113910 | -17 | 35 | 3.2 | 4.8 | 0.00 | 0.00 | 0.00 | 1008.2 | |
| 20260506113407 | -17 | 92 | 4.8 | 9.7 | 0.00 | 0.00 | 0.00 | 1008.5 | |
| 20260506112903 | -17 | 349 | 3.2 | 3.2 | 0.00 | 0.00 | 0.00 | 1008.9 | |
| 20260506112401 | -17 | 86 | 0.0 | 0.0 | 0.00 | 0.00 | 0.00 | 1008.6 | |
| 20260506111858 | -17 | 77 | 0.0 | 0.0 | 0.00 | 0.00 | 0.00 | 1008.8 | |
| 20260506111356 | -17 | 135 | 4.8 | 4.8 | 0.00 | 0.00 | 0.00 | 1008.7 | |
| 20260506110853 | -17 | 78 | 0.0 | 0.0 | 0.00 | 0.00 | 0.00 | 1008.5 | |
| 20260506110350 | -17 | 96 | 1.6 | 3.2 | 0.00 | 0.00 | 0.00 | 1008.4 | |
| 20260506105847 | -17 | 266 | 1.6 | 1.6 | 0.00 | 0.00 | 0.00 | 1008.5 | |
| 20260506105343 | -17 | 33 | 1.6 | 3.2 | 0.00 | 0.00 | 0.00 | 1008.6 | |
| 20260506104841 | -17 | 237 | 1.6 | 3.2 | 0.00 | 0.00 | 0.00 | 1008.4 | |
| 20260506104338 | -17 | 75 | 0.0 | 0.0 | 0.00 | 0.00 | 0.00 | 1008.8 | |
| 20260506103836 | -17 | 180 | 4.8 | 8.0 | 0.00 | 0.00 | 0.00 | 1008.7 | |
| 20260506103333 | -17 | 102 | 1.6 | 1.6 | 0.00 | 0.00 | 0.00 | 1008.7 | |
| 20260506102831 | -17 | 54 | 0.0 | 1.6 | 0.00 | 0.00 | 0.00 | 1008.7 | |
| 20260506102328 | -17 | 104 | 1.6 | 1.6 | 0.00 | 0.00 | 0.00 | 1008.7 | |
| 20260506101825 | -17 | 61 | 0.0 | 0.0 | 0.00 | 0.00 | 0.00 | 1008.8 | |
| 20260506101321 | -17 | 45 | 1.6 | 3.2 | 0.00 | 0.00 | 0.00 | 1008.5 | |
| 20260506100819 | -17 | 81 | 0.0 | 0.0 | 0.00 | 0.00 | 0.00 | 1008.5 | |
| 20260506100318 | -17 | 66 | 0.0 | 0.0 | 0.00 | 0.00 | 0.00 | 1008.5 | |
| 20260506095816 | -17 | 59 | 0.0 | 0.0 | 0.00 | 0.00 | 0.00 | 1008.5 | |
| 20260506095312 | -17 | 91 | 1.6 | 3.2 | 0.00 | 0.00 | 0.00 | 1008.5 | |
| 20260506094809 | -17 | 262 | 1.6 | 1.6 | 0.00 | 0.00 | 0.00 | 1008.4 | |
| 20260506094308 | -17 | 100 | 3.2 | 4.8 | 0.00 | 0.00 | 0.00 | 1008.4 | |
| 20260506093805 | -17 | 90 | 1.6 | 3.2 | 0.00 | 0.00 | 0.00 | 1008.3 | |
| 20260506093302 | -17 | 71 | 0.0 | 1.6 | 0.00 | 0.00 | 0.00 | 1008.5 | |
| 20260506092801 | -17 | 163 | 3.2 | 3.2 | 0.00 | 0.00 | 0.00 | 1008.4 | |
| 20260506092258 | -17 | 58 | 1.6 | 1.6 | 0.00 | 0.00 | 0.00 | 1008.4 | |
| 20260506091755 | -17 | 118 | 3.2 | 3.2 | 0.00 | 0.00 | 0.00 | 1008.2 | |
| 20260506091252 | -17 | 75 | 0.0 | 1.6 | 0.00 | 0.00 | 0.00 | 1008.5 | |
| 20260506090750 | -17 | 46 | 1.6 | 1.6 | 0.00 | 0.00 | 0.00 | 1008.3 | |
| 20260506090247 | -17 | 93 | 1.6 | 1.6 | 0.00 | 0.00 | 0.00 | 1008.1 | |
| 20260506085744 | -17 | 201 | 1.6 | 3.2 | 0.00 | 0.00 | 0.00 | 1008.4 | |
| 20260506085240 | -17 | 123 | 3.2 | 3.2 | 0.00 | 0.00 | 0.00 | 1008.3 | |
| 20260506084736 | -17 | 184 | 4.8 | 4.8 | 0.00 | 0.00 | 0.00 | 1008.4 | |
| 20260506084233 | -17 | 21 | 3.2 | 3.2 | 0.00 | 0.00 | 0.00 | 1008.6 | |
| 20260506083730 | -17 | 120 | 1.6 | 1.6 | 0.00 | 0.00 | 0.00 | 1008.5 | |
| 20260506083228 | -17 | 345 | 1.6 | 1.6 | 0.00 | 0.00 | 0.00 | 1008.5 | |
| 20260506082725 | -17 | 158 | 1.6 | 3.2 | 0.00 | 0.00 | 0.00 | 1008.4 | |
| 20260506082220 | -17 | 103 | 1.6 | 1.6 | 0.00 | 0.00 | 0.00 | 1008.6 | |
| 20260506081718 | -17 | 86 | 0.0 | 1.6 | 0.00 | 0.00 | 0.00 | 1008.5 | |
| 20260506081215 | -17 | 26 | 4.8 | 8.0 | 0.00 | 0.00 | 0.00 | 1008.6 | |
| 20260506080713 | -17 | 125 | 1.6 | 3.2 | 0.00 | 0.00 | 0.00 | 1008.5 | |
| 20260506080210 | -17 | 45 | 1.6 | 1.6 | 0.00 | 0.00 | 0.00 | 1008.6 | |
| 20260506073154 | -17 | 168 | 1.6 | 3.2 | 0.00 | 0.00 | 0.00 | 1008.5 | |
| 20260506072650 | -17 | 108 | 3.2 | 4.8 | 0.00 | 0.00 | 0.00 | 1008.3 | |
| 20260506072148 | -17 | 142 | 3.2 | 3.2 | 0.00 | 0.00 | 0.00 | 1008.2 | |
| 20260506071645 | -17 | 135 | 1.6 | 1.6 | 0.00 | 0.00 | 0.00 | 1008.2 | |
| 20260506071143 | -17 | 59 | 1.6 | 1.6 | 0.00 | 0.00 | 0.00 | 1008.1 | |
| 20260506070640 | -17 | 47 | 3.2 | 3.2 | 0.00 | 0.00 | 0.00 | 1008.2 | |
| 20260506070137 | -17 | 153 | 1.6 | 3.2 | 0.00 | 0.00 | 0.00 | 1008.0 | |
| 20260506062114 | -17 | 182 | 4.8 | 4.8 | 0.00 | 0.00 | 0.00 | 1007.9 | |
| 20260506061610 | -17 | 72 | 3.2 | 4.8 | 0.00 | 0.00 | 0.00 | 1007.6 | |
| 20260506061108 | -17 | 214 | 1.6 | 1.6 | 0.00 | 0.00 | 0.00 | 1007.8 | |
| 20260506060606 | -17 | 57 | 1.6 | 1.6 | 0.00 | 0.00 | 0.00 | 1007.8 | |
| 20260506051035 | -17 | 112 | 1.6 | 1.6 | 0.00 | 0.00 | 0.00 | 1008.1 | |
| 20260506050533 | -17 | 163 | 3.2 | 3.2 | 0.00 | 0.00 | 0.00 | 1008.1 | |
| 20260506045023 | -17 | 204 | 3.2 | 3.2 | 0.00 | 0.00 | 0.00 | 1008.2 | |
| 20260506044521 | -17 | 135 | 1.6 | 1.6 | 0.00 | 0.00 | 0.00 | 1008.3 | |
| 20260506044018 | -17 | 177 | 6.4 | 9.7 | 0.00 | 0.00 | 0.00 | 1008.1 | |
| 20260506043515 | -17 | 66 | 0.0 | 1.6 | 0.00 | 0.00 | 0.00 | 1008.2 | |
| 20260506043013 | -17 | 61 | 3.2 | 4.8 | 0.00 | 0.00 | 0.00 | 1008.3 | |
| 20260506042512 | -17 | 95 | 3.2 | 3.2 | 0.00 | 0.00 | 0.00 | 1008.2 | |
| 20260506042010 | -17 | 83 | 3.2 | 3.2 | 0.00 | 0.00 | 0.00 | 1008.3 | |
| 20260506041508 | -17 | 56 | 0.0 | 0.0 | 0.00 | 0.00 | 0.00 | 1008.3 | |
| 20260506041004 | -17 | 100 | 1.6 | 1.6 | 0.00 | 0.00 | 0.00 | 1008.2 | |
| 20260506040502 | -17 | 163 | 1.6 | 3.2 | 0.00 | 0.00 | 0.00 | 1008.4 | |
| 20260506035957 | -17 | 101 | 1.6 | 1.6 | 0.00 | 0.00 | 0.00 | 1008.3 | |
| 20260506035455 | -17 | 167 | 3.2 | 3.2 | 0.00 | 0.00 | 0.00 | 1008.4 | |
| 20260506034951 | -17 | 129 | 3.2 | 3.2 | 0.00 | 0.00 | 0.00 | 1008.2 | |
| 20260506034449 | -17 | 157 | 3.2 | 4.8 | 0.00 | 0.00 | 0.00 | 1008.4 | |
| 20260506033946 | -17 | 128 | 3.2 | 3.2 | 0.00 | 0.00 | 0.00 | 1008.2 | |
| 20260506033444 | -17 | 75 | 0.0 | 1.6 | 0.00 | 0.00 | 0.00 | 1008.4 | |
| 20260506032940 | -17 | 81 | 3.2 | 4.8 | 0.00 | 0.00 | 0.00 | 1008.0 | |
| 20260506032437 | -17 | 121 | 6.4 | 9.7 | 0.00 | 0.00 | 0.00 | 1008.4 | |
| 20260506031933 | -17 | 348 | 1.6 | 1.6 | 0.00 | 0.00 | 0.00 | 1008.2 | |
| 20260506031431 | -17 | 73 | 0.0 | 0.0 | 0.00 | 0.00 | 0.00 | 1008.0 |